Regional Weather Roundup
Issued by NWS

Home | Current Version | Previous Version | Text Only | Print | Product List | Glossary On
Versions: 1 2 3 4 5 6 7 8 9 10 11 12 13 14 15 16 17 18 19 20 21 22 23 24 25 26 27 28 29 30 31 32 33 34 35 36 37 38 39 40 41 42 43 44 45 46 47 48 49 50
000
ASUS43 KOAX 090902
RWRNE

WEATHER ROUNDUP FOR NEBRASKA
NATIONAL WEATHER SERVICE OMAHA NE
300 AM CST TUE FEB 09 2016

NOTES: SATELLITE DATA IS BEING USED TO AUGMENT CLOUD COVER ABOVE
       12000 FEET.
       "FAIR" INDICATES FEW OR NO CLOUDS BELOW 12,000 FEET WITH NO
       SIGNIFICANT WEATHER AND/OR OBSTRUCTIONS TO VISIBILITY.

  * THESE STATIONS DO NOT REPORT WEATHER SUCH AS RAIN...SNOW OR FOG.

NEZ001>004-019>022-054>056-091000-
NEBRASKA PANHANDLE

CITY           SKY/WX    TMP DP  RH WIND       PRES   REMARKS
SCOTTSBLUFF    CLOUDY    33  26  75 NW10      30.24S WCI  25
ALLIANCE       CLOUDY    36  27  69 NW14      30.19S WCI  27
CHADRON        PTCLDY    33  26  75 NW9       30.23S WCI  25
SIDNEY         MOCLDY    32  24  72 W14       30.23R WCI  22
$$

NEZ057>060-069>072-079>082-091000-
SOUTHWEST NEBRASKA

CITY           SKY/WX    TMP DP  RH WIND       PRES   REMARKS
NORTH PLATTE   CLOUDY    25  19  78 NW8       30.19F WCI  16
IMPERIAL       CLOUDY    30  23  75 NW8       30.22S WCI  22
MCCOOK         CLOUDY    30  21  69 W10       30.21F WCI  21
$$

NEZ005>010-023>029-035>040-094-091000-
NORTH CENTRAL NEBRASKA

CITY           SKY/WX    TMP DP  RH WIND       PRES   REMARKS
VALENTINE      CLOUDY    28  18  66 NW8       30.21R WCI  20
BROKEN BOW     CLOUDY    31  18  58 N15       30.15S WCI  20
ORD            CLEAR     25  17  72 NW15      30.15R WCI  13
$$

NEZ041-046>049-061>064-073>077-083>087-091000-
SOUTH CENTRAL NEBRASKA

CITY           SKY/WX    TMP DP  RH WIND       PRES   REMARKS
GRAND ISLAND   CLEAR     19  12  74 NW9       30.16R WCI   8
HASTINGS       CLEAR     20  12  71 NW13      30.15S WCI   7
$$

NEZ011>018-030>034-042>045-091000-
NORTHEAST NEBRASKA

CITY           SKY/WX    TMP DP  RH WIND       PRES   REMARKS
NORFOLK        PTCLDY    20  10  65 N21G28    30.14R WCI   4
COLUMBUS *     PTCLDY    21   7  53 NW12      30.14R WCI   9
TEKAMAH        CLOUDY    20   9  62 N17       30.13R WCI   5
$$

NEZ050>053-065>068-078-088>093-091000-
SOUTHEAST NEBRASKA

CITY           SKY/WX    TMP DP  RH WIND       PRES   REMARKS
LINCOLN        PTCLDY    24  13  62 N17       30.14R WCI  11
OMAHA EPPLEY   PTCLDY    19  11  70 N21G28    30.10R WCI   3
FALLS CITY     CLEAR     25  10  53 N18G35    30.07S WCI  11
$$

NEZ044-045-051>053-067-091000-
OMAHA AREA

CITY           SKY/WX    TMP DP  RH WIND       PRES   REMARKS
OMAHA EPPLEY   PTCLDY    19  11  70 N21G28    30.10R WCI   3
OFFUTT AFB     CLEAR     21   9  59 NW16G22   30.09R WCI   7
$$



USA.gov is the U.S. government's official web portal to all federal, state and local government web resources and services.